Terug naar catalogus

STARLINK-37354

ActiefCommunicatieSSO
NORAD 68743·PAYLOAD·🇺🇸 United States

Gelanceerd Apr 15, 2026 vanaf Vandenberg Space Force Base

Loading…

Volgende Passages (komende 24 uur)

TLE

VersSource: CelesTrak SupGP

Epoch: Sep 15, 2026, 03:19 UTC

1 68743C 26082R   26258.13868056  .00001112  00000+0  34498-4 0  2580
2 68743  97.2852 120.4340 0001794  96.1638  72.0247 15.33448610    19

Volg STARLINK-37354 in realtime met AllMySat

Download on the App Store